Regional Weather Roundup
Issued by NWS

Home | Current Version | Previous Version | Text Only | Print | Product List | Glossary Off
Versions: 1 2 3 4 5 6 7 8 9 10 11 12 13 14 15 16 17 18 19 20 21 22 23 24 25 26 27 28 29 30 31 32 33 34 35 36 37 38 39 40 41 42 43 44 45 46 47 48 49 50

000
ASUS43 KDTX 231410
RWRMI
MICHIGAN HOURLY REGIONAL WEATHER ROUNDUP
NATIONAL WEATHER SERVICE DETROIT/PONTIAC MI
1000 AM EDT THU OCT 23 2014

NOTE: "FAIR" INDICATES FEW OR NO CLOUDS BELOW 12,000 FEET WITH NO
SIGNIFICANT WEATHER AND/OR OBSTRUCTION TO VISIBILITY.

MIZ047>049-052>055-059>063-066>070-074>076-081>083-231500-
SOUTHEAST LOWER MICHIGAN

CITY           SKY/WX    TMP DP  RH WIND       PRES   REMARKS
ADRIAN         SUNNY     41  39  93 CALM      30.26S
ALMA           FOG       35  34  99 CALM      30.26S VSB 1/4
ANN ARBOR      SUNNY     40  37  89 CALM      30.24S
BAD AXE        FOG       33  33 100 CALM      30.25S VSB<1/4
DETROIT CITY   SUNNY     47  38  71 VRB3      30.26R
DETROIT        MOSUNNY   45  38  76 CALM      30.26R
FLINT          FOG       34  34 100 CALM      30.26R VSB 1/4
GROSSE ILE     SUNNY     45  39  81 N3        30.24S
HILLSDALE      MOSUNNY   41  41 100 CALM      30.24R FOG
HOWELL         MOSUNNY   34  34 100 CALM      30.25R FOG

CITY           SKY/WX    TMP DP  RH WIND       PRES   REMARKS
JACKSON        FOG       34  34 100 CALM      30.25R VSB 1/2
LAMBERTVILLE   SUNNY     41  37  87 CALM      30.26R
LANSING        FOG       35  35 100 CALM      30.25F VSB<1/4
LAPEER         NOT AVBL
MASON          FOG       32  32  99 CALM      30.25S VSB 1/4
MONROE         SUNNY     41  39  93 CALM      30.24R
MT. CLEMENS    SUNNY     43  40  90 NW6       30.22R
PONTIAC        MOSUNNY   42  38  85 CALM      30.23R
PORT HOPE        N/A     46  40  79 NW3       30.22F
PORT HURON     MOSUNNY   43  39  87 NW5       30.24R
TRI CITIES     CLOUDY    37  35  92 W3        30.26S FOG
YPSILANTI      SUNNY     46  38  73 CALM      30.25S
$$
MIZ043>046-050>051-056>058-064>065-071>073-077>080-231500-
SOUTHWEST LOWER MICHIGAN

CITY           SKY/WX    TMP DP  RH WIND       PRES   REMARKS
BATTLE CREEK   FOG       34  34 100 S3        30.25S VSB 1/4
BENTON HARBOR  MOSUNNY   39  38  96 S5        30.24S FOG
BIG RAPIDS     FOG       32  32 100 CALM      30.24S VSB<1/4
COLDWATER      FOG       34  33  98 CALM      30.25F VSB<1/4
HOLLAND        FOG       37  36  96 S3        30.25S VSB 1/4
GRAND RAPIDS   FOG       33  33 100 CALM      30.25S VSB 1/2
KALAMAZOO      FOG       39  38  96 SW5       30.25S VSB 1/2
MARSHALL       FOG       31  31  99 CALM      30.24F VSB 1/4
MUSKEGON       CLOUDY    39  37  92 SE6       30.24S FOG
$$
MIZ016>042-231500-
NORTHERN LOWER MICHIGAN

CITY           SKY/WX    TMP DP  RH WIND       PRES   REMARKS
ALPENA         SUNNY     34  33  96 W3        30.23F
BEAVER ISLAND  CLOUDY    44  43  97 SE3       30.20S
BELLAIRE       SUNNY     35  33  94 CALM      30.23F FOG
CADILLAC       FOG       35  35 100 SW7       30.21S VSB<1/4
CHARLEVOIX     PTSUNNY   38  38  99 S6        30.24F
FRANKFORT      SUNNY     42  38  87 CALM      30.21S
GAYLORD        MOSUNNY   32  32 100 CALM      30.21S FOG
GRAYLING       FOG       29  29 100 CALM      30.23F VSB<1/4
HARBOR SPRINGS SUNNY     39  36  88 CALM      30.22F
HOUGHTON LAKE  FOG       34  34 100 W7        30.23F VSB<1/4
OSCODA         SUNNY     36  35  96 CALM      30.24R
PELLSTON       SUNNY     34  32  92 SE5       30.22F
TRAVERSE CITY  PTSUNNY   38  34  85 VRB3      30.22S
$$
MIZ007>008-015-231500-
EASTERN UPPER MICHIGAN

CITY           SKY/WX    TMP DP  RH WIND       PRES   REMARKS
KINROSS        PTSUNNY   39  39 100 S5        30.21S
MACKINAC ISLAN PTSUNNY   42  38  84 S5        30.21F
NEWBERRY       SUNNY     42  39  89 S9G16     30.17S
S. S. MARIE    FOG       34  33  96 CALM      30.21S VSB 1/4
$$
MIZ004>006-011>014-085-231500-
CENTRAL UPPER MICHIGAN

CITY           SKY/WX    TMP DP  RH WIND       PRES   REMARKS
MANISTIQUE     PTSUNNY   48  44  84 S8G16     30.17S
ESCANABA       MOSUNNY   36  36 100 CALM      30.15S
MENOMINEE      SUNNY     45  39  81 SW7       30.15S
SAWYER-GWINN   MOSUNNY   37  36  93 S10       30.11F FOG
$$
MIZ001>003-009>011-084-231500-
WESTERN UPPER MICHIGAN

CITY           SKY/WX    TMP DP  RH WIND       PRES   REMARKS
IRON MOUNTAIN  MOSUNNY   39  36  89 S9        30.11S FOG
HOUGHTON       LGT RAIN  45  39  79 S12       30.03F
COPPER HARBOR    N/A     47  41  80 SW13G21   30.02F
IRONWOOD       CLOUDY    46  43  87 S5        29.99S
$$

ABBREVIATIONS USED IN REMARKS
   TC - TEMPERATURE IN CELSIUS
  WCI - WIND CHILL INDEX
   HX - HEAT INDEX
  VSB - VISIBILITY




USA.gov is the U.S. government's official web portal to all federal, state and local government web resources and services.